Temperature
13 13 13 13 13 13 13 13 14 14 14 15 15 15 15 16 16 16 16 15 15 15 15 15 15 14 14 14 14 14 14 14 14 15 15 15 15 15 15 15 15 15 15
13 13 13 13 13 13 14 14 14 14 15 15 15 15 16 16 16 16 16 15 15 15 15 15 15 15 14 14 14 14 14 14 14 14 14 14 14 14 14 14 14 14 15
13 13 13 13 13 14 14 14 14 15 15 15 15 15 16 16 16 16 16 15 15 15 15 15 15 15 15 14 14 14 14 14 14 14 14 14 14 14 14 14 14 14 14
13 13 13 13 13 14 14 14 14 15 15 15 15 15 16 16 16 16 16 16 15 16 15 15 15 15 15 14 14 14 14 14 14 14 14 14 14 14 14 14 14 14 14
13 13 13 13 13 14 14 14 14 15 15 15 15 15 15 15 16 16 16 15 16 16 16 15 15 15 15 15 14 14 14 14 14 14 14 14 14 14 14 14 14 14 14
12 12 12 13 13 13 13 14 14 14 14 14 15 15 15 15 15 16 15 15 15 15 15 15 15 15 15 15 15 14 14 14 14 14 13 13 13 13 13 13 13 13 13
12 12 12 12 12 12 12 13 13 13 13 14 14 14 14 14 15 15 15 15 15 15 15 15 15 15 15 15 15 14 14 14 14 14 13 13 13 13 13 13 13 13 13
12 12 12 12 12 12 12 12 12 12 12 12 13 13 13 13 14 14 14 15 15 15 15 15 15 14 14 14 14 14 14 14 14 14 14 13 13 13 13 13 13 13 13
12 12 11 11 11 12 12 12 12 11 11 12 12 12 12 12 13 13 14 14 14 14 14 14 14 14 14 15 14 14 14 14 14 14 14 13 13 13 13 13 13 12 12
12 12 12 12 12 12 12 11 11 11 11 11 11 11 11 12 12 12 13 13 13 13 13 13 13 14 14 14 14 14 14 14 14 14 14 13 13 13 13 13 12 12 12
12 12 12 12 12 12 12 11 11 11 11 11 11 11 11 11 11 11 12 12 12 12 12 12 13 13 14 14 14 14 14 14 14 13 13 13 13 13 12 12 12 12 12
13 12 12 12 12 11 11 11 11 10 10 10 10 10 10 10 10 11 11 11 12 12 12 12 12 13 13 13 13 13 13 13 13 13 13 13 13 12 12 12 12 12 12
13 13 12 12 11 11 11 11 11 10 10 10 10 10 10 10 10 10 10 11 11 11 11 12 12 12 13 13 13 13 13 13 13 13 13 12 12 12 12 12 12 11 11
14 13 13 12 11 11 11 11 11 11 10 10 10 10 10 10 10 10 10 10 10 10 11 11 11 12 12 12 12 12 12 12 12 12 12 12 12 11 11 11 11 11 11
14 13 13 12 12 11 11 11 11 10 10 10 10 10 10 10 9 9 10 10 10 10 10 11 11 11 11 11 11 11 11 11 11 11 11 11 11 11 11 11 11 10 10
14 13 13 12 12 11 11 11 11 10 10 10 10 10 10 9 9 9 9 9 10 10 10 10 10 10 10 10 10 10 10 10 10 10 10 10 10 10 10 10 10 10 10
14 13 13 12 12 12 11 11 11 10 10 10 10 10 9 9 9 9 9 9 9 10 10 10 10 10 10 10 10 10 10 10 10 10 10 10 10 9 9 9 9 9 9
14 13 13 12 12 12 11 11 11 10 10 10 9 9 9 9 9 9 9 9 9 9 9 9 9 9 9 9 9 9 9 9 9 9 9 9 9 9 8 8 8 8 8
13 13 12 12 12 12 12 11 11 11 10 10 9 9 9 8 8 8 9 9 9 8 8 9 9 9 9 9 9 9 9 9 9 8 8 8 8 8 8 7 7 7 7
13 13 12 12 12 12 12 12 11 11 10 10 10 9 9 8 8 8 8 8 8 8 8 8 8 8 9 8 8 8 8 8 8 8 8 7 7 7 7 7 7 7 7
14 13 13 12 12 12 12 12 11 11 10 10 10 9 9 8 8 8 8 8 8 8 8 9 9 9 8 8 8 8 8 8 8 7 7 7 6 6 6 7 7 7 6
14 14 13 13 12 12 12 12 11 11 11 10 10 9 9 8 8 8 8 8 8 9 9 9 9 9 9 9 8 8 8 8 8 7 7 6 6 6 6 6 6 6 6
14 14 13 13 12 12 12 12 11 11 11 10 10 9 9 9 8 8 8 9 9 9 9 9 9 9 9 9 9 8 8 8 8 7 7 6 6 6 6 6 6 6 6
14 14 13 13 13 12 12 12 12 11 11 10 10 9 9 9 9 9 9 9 9 9 9 9 9 9 9 9 9 9 9 8 8 8 7 7 7 7 7 6 6 6 6
14 14 14 13 13 13 12 12 12 12 11 10 10 9 9 9 9 9 9 9 9 9 9 9 9 9 9 9 9 9 9 9 8 7 7 7 7 7 6 6 6 6 6
14 14 13 13 13 13 12 12 12 12 11 11 10 10 9 9 9 9 9 9 9 9 9 9 9 10 10 9 9 9 9 9 8 7 7 7 7 7 6 6 5 5 5
Wind_Speed
8 7 7 6 6 6 5 4 3 1 0 2 4 4 5 7 7 5 3 3 2 3 4 5 5 4 2 3 3 3 4 4 5 4 3 2 2 3 2 6 9 10 15
7 6 6 6 5 5 5 4 3 2 3 4 4 5 5 6 6 7 6 4 4 4 3 2 3 3 4 3 3 4 4 4 4 4 3 3 4 3 2 3 5 8 11
6 5 5 5 5 4 3 3 3 4 5 5 5 6 4 3 4 5 6 6 6 5 4 2 2 1 2 2 3 3 3 3 3 3 3 3 3 2 2 3 5 5 8
5 5 5 4 3 3 3 4 4 4 5 6 5 4 2 1 1 1 3 5 4 4 3 3 1 3 4 3 1 1 0 0 1 2 2 2 3 2 2 3 4 4 5
5 6 6 4 4 3 3 4 5 5 5 6 6 6 6 5 7 7 6 3 3 2 2 3 4 7 6 4 3 3 3 1 0 0 1 1 1 2 2 3 4 3 4
8 7 7 6 6 6 6 6 6 7 8 8 9 9 10 9 12 13 9 7 6 5 3 1 6 7 7 6 4 3 2 1 2 1 1 1 2 2 2 2 2 2 3
8 8 8 8 8 8 8 8 8 8 9 9 9 9 9 11 15 14 12 7 6 6 5 3 1 4 7 6 7 7 6 6 4 0 1 1 1 1 1 1 2 2 2
8 8 8 8 8 7 8 8 8 7 7 7 8 7 7 10 16 15 14 7 6 6 5 5 3 1 2 1 1 3 4 5 6 3 2 3 3 3 2 0 0 0 1
8 8 8 8 8 8 8 7 6 6 6 6 6 7 7 8 14 16 14 6 5 5 4 3 4 5 7 5 3 3 3 3 5 7 7 6 5 3 3 2 2 1 1
8 7 7 7 7 8 8 8 6 6 6 5 5 5 6 7 11 15 14 6 6 5 4 4 7 6 6 5 4 4 4 3 3 3 3 2 2 2 0 1 1 1 1
6 6 7 7 7 8 7 7 7 6 6 6 6 5 5 6 8 12 13 6 6 5 4 4 5 7 6 5 5 4 3 3 3 3 3 2 2 2 0 1 0 1 1
4 4 5 6 7 7 6 7 7 7 7 7 7 6 6 6 8 10 11 9 7 5 5 4 4 7 6 6 4 4 4 3 2 3 4 3 3 3 3 3 4 3 2
3 3 4 6 6 7 7 7 7 7 6 6 6 6 6 7 9 14 12 10 9 4 3 5 5 6 4 3 5 4 4 3 3 4 4 4 3 3 3 3 4 5 4
4 4 6 6 6 7 6 6 6 7 7 7 7 7 7 7 8 9 8 7 7 5 3 4 5 7 6 5 4 4 4 4 4 4 3 3 3 3 3 3 3 3 3
4 5 6 6 5 6 6 6 6 6 5 5 5 6 6 7 9 11 8 7 6 5 4 4 5 5 6 6 5 6 5 5 6 5 4 3 3 3 3 3 3 4 4
5 6 4 4 4 5 6 5 8 7 8 9 9 8 5 7 10 11 12 13 13 11 7 7 7 7 7 7 7 7 7 7 6 5 5 5 4 4 4 4 4 5 5
6 5 5 4 3 3 4 5 4 3 5 8 9 9 9 10 12 12 11 12 15 13 10 9 8 8 8 8 7 7 7 7 7 7 6 6 5 5 5 5 5 5 5
6 5 3 3 3 4 4 3 3 4 2 2 3 5 7 10 12 14 13 10 10 10 8 8 8 8 8 8 7 7 7 7 7 6 6 6 6 5 5 5 5 5 4
5 4 4 3 2 3 3 3 4 5 4 3 2 2 3 3 8 12 11 7 7 7 7 7 7 7 7 7 7 6 6 6 6 6 6 6 5 5 5 5 5 7 6
5 4 3 2 0 2 2 3 3 4 4 4 5 4 4 5 5 6 6 6 6 6 6 6 6 7 6 6 6 5 5 6 6 6 5 5 5 4 5 5 5 5 4
5 4 1 4 1 2 2 3 3 4 4 5 4 3 5 4 4 5 5 5 5 5 5 5 5 5 5 5 5 5 6 5 5 5 5 4 4 4 4 4 5 5 5
1 5 4 2 2 3 2 2 3 3 4 5 4 3 2 3 3 3 4 4 4 4 3 4 4 3 3 3 4 4 5 5 4 5 5 5 4 4 4 5 5 4 4
3 1 2 3 4 4 2 1 3 3 3 4 4 4 3 3 3 3 3 3 3 3 4 4 3 2 3 4 6 6 5 5 5 4 4 5 5 5 5 5 5 5 5
5 2 2 2 3 3 3 2 3 4 4 3 3 4 4 3 3 3 3 3 2 4 5 5 3 2 4 7 10 11 10 9 10 9 7 4 5 4 4 4 4 5 4
6 4 2 2 3 4 3 3 3 4 5 4 4 4 4 4 3 3 3 3 3 3 3 4 2 4 9 12 11 9 8 9 10 11 8 5 5 4 4 4 4 4 5
6 4 3 2 2 2 2 3 3 3 4 4 4 4 4 4 4 3 3 3 3 3 3 5 4 5 9 11 8 7 7 9 10 12 7 5 4 4 4 3 4 5 5
Wind_Direction
39 46 50 52 53 62 68 69 63 34 344 273 264 250 205 191 190 170 217 215 255 266 213 213 221 220 216 229 226 223 220 204 223 244 220 208 201 246 213 237 239 205 205
34 40 44 44 46 43 34 25 10 324 295 278 269 269 236 193 182 172 191 190 224 258 270 243 224 194 201 220 216 225 223 215 213 237 226 212 217 222 219 258 263 232 209
27 31 38 34 31 22 5 339 310 292 281 271 266 266 255 199 192 178 180 200 217 221 221 240 268 160 187 200 201 217 219 227 214 223 231 217 228 231 230 248 262 270 257
35 34 34 27 9 349 336 319 300 289 284 284 277 280 280 228 236 233 215 208 223 222 195 188 184 77 61 39 55 41 67 254 242 234 240 227 224 226 213 231 253 257 264
42 37 27 22 9 1 356 343 336 343 347 350 1 10 19 26 27 18 357 332 291 260 225 186 126 110 101 80 61 38 31 6 325 257 277 261 227 204 220 225 239 254 262
44 38 31 34 31 27 25 25 24 25 20 18 23 38 41 33 24 22 8 343 333 321 298 173 147 154 155 159 166 178 166 47 38 23 349 324 295 248 232 227 241 254 271
49 44 38 37 37 34 29 26 35 44 37 33 32 40 46 34 24 14 5 334 308 307 313 309 230 156 160 187 199 209 216 208 201 243 17 32 23 350 302 254 242 238 248
41 47 43 37 35 35 36 36 36 42 47 43 34 37 45 35 21 9 354 320 291 292 299 303 307 130 142 82 167 222 213 186 195 194 84 78 72 52 52 40 278 266 12
34 40 42 37 31 28 31 39 38 37 43 55 40 33 36 32 20 10 359 325 324 312 309 346 30 62 52 43 2 349 51 107 121 109 99 100 95 72 42 44 44 39 349
31 31 36 36 39 32 23 21 27 32 30 50 52 39 38 31 23 16 8 354 353 348 352 42 64 74 69 45 15 24 35 33 110 132 131 146 180 171 220 349 56 38 358
40 33 33 30 50 49 27 21 23 26 25 27 37 35 39 36 22 19 15 10 354 349 8 37 52 51 56 43 30 48 60 2 12 79 98 99 91 98 137 297 53 99 54
65 47 51 51 45 46 41 34 30 22 28 28 22 20 23 30 23 9 8 9 1 6 20 30 34 29 34 35 47 63 36 9 33 69 73 67 62 48 32 23 22 31 52
83 60 72 77 71 50 44 40 33 28 27 24 19 15 17 24 13 5 2 5 6 17 34 38 31 28 29 56 59 42 26 43 60 69 73 61 51 43 36 19 13 20 21
110 79 77 73 76 70 49 45 44 29 22 17 16 13 12 21 14 2 356 2 9 17 23 43 48 51 55 61 60 50 49 54 69 76 80 74 59 44 36 26 15 5 22
93 87 84 81 86 89 73 46 50 59 41 24 8 9 16 14 3 1 10 10 6 12 12 35 47 51 49 47 49 48 47 47 55 55 59 62 54 49 36 19 19 20 33
68 71 72 87 97 121 123 97 56 66 62 58 47 37 45 23 7 15 22 25 29 35 50 50 48 46 48 49 50 48 46 43 43 46 48 47 46 45 37 27 29 35 36
64 64 64 48 57 87 125 142 137 94 61 56 51 47 41 26 23 21 25 36 38 44 54 49 45 42 43 45 45 46 44 38 39 41 41 39 38 39 40 39 35 31 26
88 80 75 65 48 59 67 81 106 126 126 110 62 46 40 35 30 27 30 44 44 45 48 46 42 41 41 41 39 40 41 36 35 38 37 33 30 35 36 35 40 30 20
63 64 54 52 56 80 81 80 87 90 87 80 82 43 18 36 40 38 38 46 50 47 46 44 39 37 37 37 32 33 43 40 34 35 34 28 25 30 30 30 36 32 30
88 61 20 340 2 101 92 89 89 90 89 76 59 29 9 34 40 38 40 41 46 47 48 48 42 37 31 29 28 28 41 42 30 27 21 16 15 24 31 37 39 36 30
141 134 215 288 320 78 80 91 97 93 93 92 85 49 15 37 47 48 48 49 50 46 48 55 51 39 28 23 21 28 45 46 31 14 6 3 13 27 35 42 43 41 31
161 167 192 197 100 67 41 85 104 106 113 120 134 139 69 61 63 58 56 57 61 61 58 62 63 51 35 24 19 23 41 43 31 10 358 357 10 31 42 46 41 40 32
296 188 172 151 127 124 246 208 134 121 115 119 130 130 118 93 85 75 74 74 73 70 71 71 73 52 36 39 50 47 41 23 357 348 352 6 22 39 50 47 41 44 41
302 270 214 181 158 170 215 193 151 141 133 130 134 136 136 126 113 102 96 90 84 85 88 79 63 55 66 66 67 61 44 23 9 359 358 25 41 47 55 55 50 43 35
290 282 243 213 177 183 203 189 179 166 154 151 147 144 147 146 142 140 131 121 114 111 119 123 103 57 73 81 74 58 39 30 23 9 4 41 49 48 67 70 67 60 53
276 277 267 233 189 194 196 191 192 171 154 151 149 146 146 145 146 152 148 142 143 140 129 116 107 94 95 93 76 55 36 26 18 12 25 64 67 42 46 68 76 75 74
Height
1496 1495 1495 1495 1496 1497 1499 1501 1502 1504 1507 1509 1511 1514 1516 1518 1521 1522 1523 1525 1525 1526 1526 1526 1526 1527 1527 1527 1526 1527 1527 1528 1528 1529 1531 1531 1532 1533 1534 1535 1537 1538 1539
1500 1499 1499 1499 1500 1501 1501 1503 1504 1505 1507 1509 1511 1513 1516 1518 1520 1521 1522 1523 1523 1524 1525 1526 1526 1525 1525 1525 1524 1524 1524 1524 1525 1525 1526 1527 1528 1529 1530 1531 1532 1534 1535
1503 1503 1503 1503 1503 1504 1504 1505 1506 1507 1509 1510 1511 1512 1515 1517 1518 1520 1521 1521 1522 1523 1524 1524 1525 1524 1524 1523 1522 1522 1522 1522 1522 1522 1522 1523 1524 1525 1526 1527 1528 1529 1531
1507 1506 1506 1506 1506 1506 1507 1507 1508 1508 1509 1510 1510 1511 1513 1514 1516 1517 1519 1520 1521 1522 1522 1523 1523 1523 1522 1522 1521 1521 1520 1520 1520 1520 1520 1520 1520 1521 1521 1522 1523 1525 1526
1510 1509 1508 1508 1508 1508 1508 1508 1508 1508 1508 1508 1508 1509 1510 1511 1512 1514 1515 1517 1519 1520 1520 1521 1521 1521 1521 1520 1520 1520 1519 1519 1519 1518 1518 1518 1518 1518 1518 1519 1519 1520 1521
1513 1512 1511 1510 1509 1509 1509 1508 1508 1508 1508 1508 1508 1508 1508 1508 1509 1511 1513 1514 1516 1517 1518 1519 1519 1519 1519 1519 1519 1520 1519 1519 1518 1518 1517 1517 1517 1516 1516 1516 1516 1516 1517
1518 1516 1515 1513 1512 1511 1510 1510 1509 1508 1508 1507 1507 1507 1507 1507 1507 1508 1509 1511 1512 1514 1515 1516 1516 1517 1517 1517 1518 1519 1519 1518 1518 1518 1517 1516 1516 1515 1514 1514 1513 1514 1514
1522 1520 1519 1517 1516 1514 1513 1512 1511 1510 1509 1508 1507 1507 1506 1506 1506 1506 1506 1507 1508 1510 1511 1512 1513 1514 1515 1516 1517 1518 1518 1518 1517 1517 1517 1516 1516 1515 1514 1514 1513 1513 1513
1526 1524 1522 1520 1519 1517 1516 1515 1513 1512 1511 1510 1509 1508 1507 1506 1505 1504 1504 1504 1505 1507 1508 1509 1510 1511 1513 1514 1516 1517 1517 1517 1517 1517 1517 1516 1516 1515 1514 1514 1513 1513 1513
1529 1528 1526 1523 1522 1520 1518 1517 1516 1514 1513 1512 1511 1509 1508 1506 1505 1504 1503 1503 1504 1504 1505 1506 1507 1509 1511 1512 1514 1515 1515 1516 1516 1517 1517 1516 1516 1516 1515 1515 1514 1514 1514
1532 1530 1528 1526 1524 1522 1520 1519 1517 1516 1515 1514 1513 1511 1510 1508 1506 1505 1504 1503 1503 1503 1504 1504 1505 1507 1508 1510 1512 1513 1514 1515 1516 1516 1516 1516 1516 1516 1516 1516 1515 1515 1515
1534 1532 1531 1529 1527 1525 1523 1521 1519 1518 1517 1516 1515 1514 1512 1510 1507 1505 1504 1503 1503 1503 1503 1504 1505 1506 1507 1509 1510 1512 1513 1514 1515 1516 1516 1517 1516 1516 1516 1516 1516 1515 1515
1536 1535 1533 1531 1529 1527 1525 1523 1521 1520 1519 1518 1517 1515 1513 1511 1508 1506 1505 1504 1503 1503 1503 1503 1504 1505 1507 1508 1509 1511 1512 1513 1514 1515 1516 1516 1516 1516 1516 1516 1516 1515 1515
1538 1537 1535 1534 1532 1530 1528 1526 1524 1523 1521 1520 1519 1517 1515 1513 1510 1507 1506 1505 1504 1504 1504 1505 1505 1506 1507 1508 1509 1511 1512 1513 1514 1515 1515 1516 1516 1516 1516 1516 1516 1515 1515
1540 1538 1537 1536 1534 1533 1531 1529 1528 1526 1524 1523 1521 1519 1517 1514 1512 1510 1509 1507 1506 1506 1506 1507 1507 1508 1509 1510 1511 1512 1513 1514 1515 1515 1516 1517 1517 1517 1517 1516 1516 1515 1515
1541 1540 1539 1538 1536 1535 1534 1533 1531 1530 1528 1527 1525 1522 1520 1518 1516 1514 1512 1510 1510 1510 1510 1510 1510 1511 1512 1513 1513 1514 1515 1515 1516 1516 1517 1517 1517 1517 1517 1516 1516 1515 1514
1542 1541 1540 1540 1539 1538 1536 1535 1534 1533 1531 1530 1528 1525 1523 1521 1519 1518 1516 1515 1514 1513 1513 1513 1514 1514 1515 1516 1516 1516 1517 1517 1517 1517 1517 1517 1517 1517 1516 1516 1515 1515 1514
1543 1542 1541 1541 1540 1540 1539 1538 1536 1535 1533 1532 1530 1528 1526 1524 1523 1521 1520 1519 1518 1517 1516 1517 1517 1518 1518 1518 1518 1519 1519 1519 1518 1518 1518 1518 1517 1517 1516 1516 1515 1514 1513
1544 1543 1542 1542 1542 1541 1540 1540 1539 1537 1536 1534 1532 1531 1529 1527 1526 1524 1523 1522 1521 1520 1520 1520 1520 1520 1520 1520 1520 1520 1520 1519 1519 1518 1518 1518 1518 1517 1517 1516 1515 1514 1513
1544 1543 1543 1543 1543 1542 1542 1541 1540 1539 1537 1536 1534 1533 1531 1529 1528 1526 1525 1524 1523 1523 1522 1522 1521 1521 1521 1521 1521 1520 1520 1519 1519 1519 1519 1518 1518 1518 1517 1516 1515 1514 1512
1544 1544 1543 1543 1543 1543 1543 1542 1541 1540 1539 1537 1536 1534 1532 1531 1530 1528 1527 1526 1525 1524 1524 1523 1522 1522 1521 1521 1521 1521 1520 1519 1519 1519 1518 1518 1518 1518 1517 1516 1515 1513 1512
1545 1544 1544 1544 1544 1543 1543 1543 1542 1541 1540 1538 1537 1535 1534 1532 1531 1530 1529 1528 1527 1526 1525 1524 1523 1522 1522 1521 1521 1520 1520 1519 1519 1519 1519 1519 1518 1518 1517 1516 1514 1513 1512
1545 1545 1544 1544 1543 1543 1543 1543 1542 1541 1541 1539 1538 1537 1535 1534 1533 1531 1530 1529 1528 1527 1526 1525 1524 1523 1523 1522 1521 1521 1520 1520 1519 1519 1519 1519 1518 1517 1516 1515 1514 1513 1512
1544 1544 1544 1544 1543 1542 1542 1542 1542 1541 1541 1540 1539 1537 1536 1535 1534 1533 1531 1530 1529 1528 1527 1526 1526 1525 1524 1523 1522 1521 1521 1520 1520 1520 1519 1519 1518 1518 1517 1516 1515 1514 1513
1542 1542 1543 1542 1542 1541 1541 1541 1541 1541 1540 1539 1539 1538 1537 1535 1534 1533 1532 1531 1530 1530 1529 1528 1527 1526 1525 1524 1523 1523 1522 1521 1521 1520 1520 1519 1519 1518 1517 1517 1516 1515 1514
1539 1540 1540 1541 1540 1540 1540 1540 1540 1540 1539 1539 1538 1537 1536 1535 1534 1534 1533 1532 1531 1530 1530 1529 1528 1527 1526 1525 1525 1524 1523 1522 1522 1521 1521 1520 1520 1519 1519 1518 1517 1517 1516